Regional Weather Roundup
Issued by NWS Charleston, WV

Home | Current Version | Previous Version | Text Only | Print | Product List | Glossary Off
Versions: 1 2 3 4 5 6 7 8 9 10 11 12 13 14 15 16 17 18 19 20 21 22 23 24 25 26 27

000
ASUS41 KRLX 271710
RWRRLX
West Virginia Regional Weather Roundup
National Weather Service Charleston WV
100 PM EDT THU APR 27 2017

Note: "fair" indicates few or no clouds below 12,000 feet with no
significant weather and/or obstructions to visibility.

WVZ003-271800-
Northern Panhandle of West Virginia

CITY           SKY/WX    TMP DP  RH WIND       PRES   REMARKS
WHEELING       MOSUNNY   77  53  43 S16       29.66F
$$

WVZ009-271800-
Northwest West Virginia

CITY           SKY/WX    TMP DP  RH WIND       PRES   REMARKS
PARKERSBURG    CLOUDY    75  56  51 S9G21     29.69F
$$

WVZ006-271800-
Western West Virginia

CITY           SKY/WX    TMP DP  RH WIND       PRES   REMARKS
HUNTINGTON     CLOUDY    74  57  55 S15G26    29.69R
$$

WVZ015-271800-
West Central West Virginia

CITY           SKY/WX    TMP DP  RH WIND       PRES   REMARKS
CHARLESTON     CLOUDY    72  54  53 SW7       29.71R
$$

WVZ022-031-271800-
North Central West Virginia

CITY           SKY/WX    TMP DP  RH WIND       PRES   REMARKS
CLARKSBURG     PTSUNNY   80  54  40 SW15G23   29.71R
MORGANTOWN     CLOUDY    82  50  32 SW7       29.70F
$$

WVZ025-035-042-045-271800-
Southern West Virginia

CITY           SKY/WX    TMP DP  RH WIND       PRES   REMARKS
BECKLEY        CLOUDY    71  50  47 S15G21    29.79F
LOGAN          PTSUNNY   66  55  68 VRB7G13   29.75S
BLUEFIELD      CLOUDY    70  49  47 S6G18     29.83F
LEWISBURG      PTSUNNY   73  49  43 SW10      29.81F
$$

WVZ047-271800-
Northern Mountains of West Virginia

CITY           SKY/WX    TMP DP  RH WIND       PRES   REMARKS
ELKINS         CLOUDY    77  46  33 S8        29.76S
$$

WVZ052-271800-
Eastern Panhandle of West Virginia

CITY           SKY/WX    TMP DP  RH WIND       PRES   REMARKS
MARTINSBURG    MOSUNNY   71  62  73 E8        29.78F
PETERSBURG     CLOUDY    82  51  34 S13G23    29.74F
$$




USA.gov is the U.S. government's official web portal to all federal, state and local government web resources and services.